Location: Korczew
(51.3586°N, 19.4491°E)
Time: 22:30:49
(UTC+00:00)

Cosmos 2233 Rocket - Pass Details

Date: 19 May 2025
Orbit: 953 x 989 km, 82.9° (Epoch: 16 June)

Event Time Altitude Azimuth Distance (km) Brightness Sun altitude
Rises 23:26:52 0° 351° (N) 3,662 8.3 -17.9°
Reaches altitude 10° 23:29:23 10° 354° (N) 2,716 7.4 -17.8°
Maximum altitude 23:35:36 70° 78° (ENE) 1,035 4.2 -17.6°
Enters shadow 23:40:08 20° 158° (SSE) 2,111 5.3 -17.4°
